This demonstration page uses our WeatherBlox Daily Observations layout. Learn more.

Left ArrowRight Arrow

39.92423, -83.80882

Hourly Observations for November 8, 2020

Temp ( °F °C ) Dew Point ( °F °C ) Humidity (%) Winds ( mph kmh ) Pressure ( in mb ) Visibility ( mi km ) Precip ( " mm )
12:56 am 00:56 Clear 42 5.6 41 5 96 96 SSE 5 7 30.27 1025 10 16 N/A
1:56 am 01:56 Clear 42 5.6 41 5 96 96 E 5 7 30.28 1025 10 16 N/A
2:56 am 02:56 Clear 43 6.1 42 5.6 97 97 ENE 5 7 30.29 1026 10 16 N/A
3:56 am 03:56 Clear 42 5.6 42 5.6 100 100 E 5 7 30.29 1026 10 16 N/A
4:56 am 04:56 Clear 44 6.7 42 5.6 93 93 ESE 6 9 30.30 1026 10 16 N/A
5:56 am 05:56 Clear 43 6.1 42 5.6 97 97 E 5 7 30.32 1027 10 16 N/A
6:56 am 06:56 Clear 44 6.7 43 6.1 96 96 E 3 6 30.34 1027 10 16 N/A
7:56 am 07:56 Sunny 47 8.3 44 6.7 90 90 E 3 6 30.35 1028 10 16 N/A
8:56 am 08:56 Sunny 59 15 49 9.4 69 69 ESE 3 6 30.36 1028 10 16 N/A
9:56 am 09:56 Sunny 68 20 49 9.4 51 51 ESE 5 7 30.36 1028 7 11 N/A
10:56 am 10:56 Sunny 73 22.8 47 8.3 40 40 SE 6 9 30.36 1028 10 16 N/A
11:56 am 11:56 Sunny 76 24.4 47 8.3 36 36 VRB 3 6 30.34 1027 10 16 N/A
12:56 pm 12:56 Sunny 77 25 51 10.6 40 40 ESE 8 13 30.32 1027 10 16 N/A
1:56 pm 13:56 Sunny 78 25.6 51 10.6 39 39 ESE 8 13 30.31 1026 10 16 N/A
2:56 pm 14:56 Sunny 78 25.6 53 11.7 42 42 ESE 12 19 30.30 1026 10 16 N/A
3:56 pm 15:56 Sunny 76 24.4 52 11.1 43 43 ESE 10 17 30.30 1026 10 16 N/A
4:56 pm 16:56 Sunny 72 22.2 51 10.6 48 48 ESE 9 15 30.29 1026 10 16 N/A
5:56 pm 17:56 Clear 64 17.8 50 10 60 60 ESE 6 9 30.30 1026 10 16 N/A
6:56 pm 18:56 Clear 59 15 50 10 72 72 E 7 11 30.30 1026 10 16 N/A
7:56 pm 19:56 Clear 56 13.3 50 10 81 81 E 7 11 30.30 1026 10 16 N/A
8:56 pm 20:56 Clear 55 12.8 49 9.4 80 80 E 6 9 30.29 1026 10 16 0.01 0.25
9:56 pm 21:56 Clear 55 12.8 49 9.4 80 80 E 5 7 30.29 1026 10 16 N/A
10:56 pm 22:56 Clear 52 11.1 48 8.9 86 86 E 5 7 30.29 1026 10 16 N/A
11:56 pm 23:56 Clear 50 10 48 8.9 93 93 ENE 5 7 30.27 1025 10 16 N/A

Powered by AerisWeather